H1 CPF 2 NER 2022 11 1 9 305 01 glonass106 H2 0705201 9106 32275 2022 11 1 0 0 0 2022 11 4 23 45 0 900 1 1 0 0 0 1 H9 10 0 59884 0.00000 0 -11540572.452 -3327670.726 -22497224.862 10 0 59884 900.00000 0 -9414004.714 -5182747.640 -23128698.661 10 0 59884 1800.00000 0 -7401345.935 -7231336.683 -23310776.262 10 0 59884 2700.00000 0 -5555295.564 -9423973.619 -23039967.950 10 0 59884 3600.00000 0 -3918961.556 -11702722.657 -22321580.308 10 0 59884 4500.00000 0 -2524242.760 -14003420.982 -21169609.953 10 0 59884 5400.00000 0 -1390694.584 -16258197.960 -19606469.268 10 0 59884 6300.00000 0 -524923.981 -18398164.510 -17662549.454 10 0 59884 7200.00000 0 79462.199 -20356160.869 -15375629.298 10 0 59884 8100.00000 0 441354.708 -22069448.508 -12790140.957 10 0 59884 9000.00000 0 591107.660 -23482234.121 -9956306.779 10 0 59884 9900.00000 0 569017.141 -24547920.404 -6929163.815 10 0 59884 10800.00000 0 423377.837 -25230989.744 -3767494.872 10 0 59884 11700.00000 0 208200.504 -25508442.129 -532686.845 10 0 59884 12600.00000 0 -19312.609 -25370727.242 2712461.294 10 0 59884 13500.00000 0 -201427.093 -24822131.866 5904957.557 10 0 59884 14400.00000 0 -282557.547 -23880606.575 8982839.192 10 0 59884 15300.00000 0 -211856.816 -22577039.171 11886374.170 10 0 59884 16200.00000 0 54396.505 -20954005.499 14559218.517 10 0 59884 17100.00000 0 550713.553 -19064050.009 16949507.167 10 0 59884 18000.00000 0 1300702.037 -16967568.082 19010857.265 10 0 59884 18900.00000 0 2315836.368 -14730378.468 20703264.894 10 0 59884 19800.00000 0 3594743.585 -12421086.935 21993878.293 10 0 59884 20700.00000 0 5123035.949 -10108350.710 22857633.007 10 0 59884 21600.00000 0 6873698.385 -7858157.149 23277737.179 10 0 59884 22500.00000 0 8808015.810 -5731229.285 23245997.877 10 0 59884 23400.00000 0 10877002.923 -3780665.586 22762982.288 10 0 59884 24300.00000 0 13023278.138 -2049911.414 21838010.593 10 0 59884 25200.00000 0 15183304.790 -571145.861 20488980.327 10 0 59884 26100.00000 0 17289907.183 635849.433 18742025.131 10 0 59884 27000.00000 0 19274957.439 1564293.005 16631013.814 10 0 59884 27900.00000 0 21072121.612 2220453.297 14196898.689 10 0 59884 28800.00000 0 22619550.538 2623143.866 11486925.126 10 0 59884 29700.00000 0 23862402.924 2802685.927 8553717.082 10 0 59884 30600.00000 0 24755094.745 2799382.459 5454255.916 10 0 59884 31500.00000 0 25263180.132 2661568.851 2248772.314 10 0 59884 32400.00000 0 25364784.288 2443323.125 -1000427.050 10 0 59884 33300.00000 0 25051527.629 2201933.315 -4230174.905 10 0 59884 34200.00000 0 24328901.802 1995230.065 -7377676.501 10 0 59884 35100.00000 0 23216081.389 1878898.279 -10381735.813 10 0 59884 36000.00000 0 21745178.964 1903882.635 -13183950.280 10 0 59884 36900.00000 0 19959974.790 2113997.697 -15729850.118 10 0 59884 37800.00000 0 17914174.533 2543844.637 -17969959.675 10 0 59884 38700.00000 0 15669268.220 3217123.446 -19860759.945 10 0 59884 39600.00000 0 13292080.337 4145412.645 -21365533.517 10 0 59884 40500.00000 0 10852113.636 5327468.634 -22455075.786 10 0 59884 41400.00000 0 8418797.572 6749074.890 -23108259.051 10 0 59884 42300.00000 0 6058756.056 8383447.967 -23312438.992 10 0 59884 43200.00000 0 3833207.962 10192183.942 -23063696.190 10 0 59884 44100.00000 0 1795608.003 12126706.331 -22366908.451 10 0 59884 45000.00000 0 -10374.566 14130155.466 -21235652.860 10 0 59884 45900.00000 0 -1552456.328 16139640.926 -19691939.641 10 0 59884 46800.00000 0 -2810853.729 18088763.424 -17765783.007 10 0 59884 47700.00000 0 -3778865.529 19910301.146 -15494617.250 10 0 59884 48600.00000 0 -4462900.823 21538948.605 -12922569.202 10 0 59884 49500.00000 0 -4881952.863 22913993.697 -10099600.971 10 0 59884 50400.00000 0 -5066542.110 23981821.061 -7080539.474 10 0 59884 51300.00000 0 -5057174.213 24698136.960 -3924011.522 10 0 59884 52200.00000 0 -4902378.989 25029822.481 -691305.115 10 0 59884 53100.00000 0 -4656414.022 24956337.294 2554820.736 10 0 59884 54000.00000 0 -4376730.647 24470615.090 5751354.377 10 0 59884 54900.00000 0 -4121310.019 23579413.080 8836254.245 10 0 59884 55800.00000 0 -3945982.291 22303100.850 11749651.947 10 0 59884 56700.00000 0 -3901842.627 20674897.389 14435012.305 10 0 59884 57600.00000 0 -4032873.468 18739588.078 16840227.930 10 0 59884 58500.00000 0 -4373873.741 16551775.163 18918627.215 10 0 59884 59400.00000 0 -4948782.645 14173734.540 20629876.608 10 0 59884 60300.00000 0 -5769469.112 11672967.826 21940760.122 10 0 59884 61200.00000 0 -6835038.417 9119551.300 22825821.438 10 0 59884 62100.00000 0 -8131685.901 6583391.413 23267856.639 10 0 59884 63000.00000 0 -9633104.946 4131500.271 23258248.383 10 0 59884 63900.00000 0 -11301433.213 1825403.660 22797135.187 10 0 59884 64800.00000 0 -13088698.818 -281211.499 21893412.501 10 0 59884 65700.00000 0 -14938707.221 -2144513.302 20564565.244 10 0 59884 66600.00000 0 -16789291.050 -3732121.371 18836334.541 10 0 59884 67500.00000 0 -18574829.793 -5024218.068 16742224.450 10 0 59884 68400.00000 0 -20228934.682 -6014128.689 14322857.479 10 0 59884 69300.00000 0 -21687186.779 -6708347.049 11625190.689 10 0 59884 70200.00000 0 -22889813.621 -7126006.059 8701606.992 10 0 59884 71100.00000 0 -23784191.972 -7297816.236 5608898.847 10 0 59884 72000.00000 0 -24327071.101 -7264517.474 2407164.009 10 0 59884 72900.00000 0 -24486422.509 -7074910.148 -841365.083 10 0 59884 73800.00000 0 -24242837.567 -6783549.531 -4073535.166 10 0 59884 74700.00000 0 -23590413.511 -6448201.855 -7226504.964 10 0 59884 75600.00000 0 -22537089.839 -6127170.609 -10238972.318 10 0 59884 76500.00000 0 -21104420.388 -5876607.140 -13052371.032 10 0 59884 77400.00000 0 -19326790.326 -5747920.300 -15612013.464 10 0 59884 78300.00000 0 -17250110.674 -5785395.534 -17868156.191 10 0 59884 79200.00000 0 -14930044.992 -6024124.799 -19776967.823 10 0 59884 80100.00000 0 -12429842.469 -6488335.363 -21301380.090 10 0 59884 81000.00000 0 -9817867.999 -7190188.510 -22411805.932 10 0 59884 81900.00000 0 -7164932.177 -8129099.241 -23086711.077 10 0 59884 82800.00000 0 -4541532.418 -9291606.027 -23313028.451 10 0 59884 83700.00000 0 -2015119.631 -10651796.500 -23086407.954 10 0 59884 84600.00000 0 352496.402 -12172271.696 -22411297.175 10 0 59884 85500.00000 0 2507495.724 -13805608.840 -21300851.829 10 0 59885 0.00000 0 4406054.129 -15496261.678 -19776677.975 10 0 59885 900.00000 0 6015924.946 -17182820.141 -17868410.158 10 0 59885 1800.00000 0 7317529.497 -18800532.741 -15613135.690 10 0 59885 2700.00000 0 8304515.546 -20283989.384 -13054673.340 10 0 59885 3600.00000 0 8983759.209 -21569850.131 -10242722.155 10 0 59885 4500.00000 0 9374812.691 -22599506.437 -7231896.067 10 0 59885 5400.00000 0 9508822.258 -23321563.119 -4080663.068 10 0 59885 6300.00000 0 9426963.167 -23694036.766 -850209.512 10 0 59885 7200.00000 0 9178458.585 -23686178.112 2396748.181 10 0 59885 8100.00000 0 8818266.984 -23279841.666 5597181.161 10 0 59885 9000.00000 0 8404536.405 -22470344.811 8688971.335 10 0 59885 9900.00000 0 7995933.666 -21266780.092 11612116.010 10 0 59885 10800.00000 0 7648961.758 -19691767.286 14309890.635 10 0 59885 11700.00000 0 7415378.988 -17780655.290 16729947.073 10 0 59885 12600.00000 0 7339828.976 -15580206.868 18825326.272 10 0 59885 13500.00000 0 7457781.626 -13146820.726 20555366.058 10 0 59885 14400.00000 0 7793871.998 -10544364.494 21886486.938 10 0 59885 15300.00000 0 8360707.273 -7841708.311 22792841.122 10 0 59885 16200.00000 0 9158192.408 -5110060.854 23256812.717 10 0 59885 17100.00000 0 10173403.417 -2420217.668 23269359.744 10 0 59885 18000.00000 0 11381014.416 160164.654 22830191.537 10 0 59885 18900.00000 0 12744261.447 2569156.189 21947778.035 10 0 59885 19800.00000 0 14216403.812 4752896.685 20639190.520 10 0 59885 20700.00000 0 15742622.674 6667597.208 18929776.359 10 0 59885 21600.00000 0 17262278.373 8281117.920 16852673.420 10 0 59885 22500.00000 0 18711432.613 9574056.991 14448172.765 10 0 59885 23400.00000 0 20025530.222 10540305.738 11762941.311 10 0 59885 24300.00000 0 21142128.108 11187047.475 8849118.906 10 0 59885 25200.00000 0 22003556.660 11534200.750 5763306.891 10 0 59885 26100.00000 0 22559401.228 11613331.043 2565467.718 10 0 59885 27000.00000 0 22768698.601 11466077.487 -682242.902 10 0 59885 27900.00000 0 22601755.172 11142161.789 -3916688.276 10 0 59885 28800.00000 0 22041509.302 10697064.298 -7074983.155 10 0 59885 29700.00000 0 21084379.615 10189466.349 -10095721.710 10 0 59885 30600.00000 0 19740562.664 9678567.994 -12920176.430 10 0 59885 31500.00000 0 18033766.816 9221395.407 -15493443.924 10 0 59885 32400.00000 0 16000392.921 8870212.631 -17765514.900 10 0 59885 33300.00000 0 13688195.748 8670147.701 -19692247.269 10 0 59885 34200.00000 0 11154481.974 8657133.906 -21236223.399 10 0 59885 35100.00000 0 8463919.807 8856253.405 -22367475.103 10 0 59885 36000.00000 0 5686051.397 9280553.300 -23064062.689 10 0 59885 36900.00000 0 2892611.481 9930384.136 -23312497.288 10 0 59885 37800.00000 0 154763.458 10793288.835 -23107998.814 10 0 59885 38700.00000 0 -2459632.771 11844446.841 -22454585.012 10 0 59885 39600.00000 0 -4888608.219 13047655.022 -21364990.201 10 0 59885 40500.00000 0 -7078420.854 14356804.339 -19860415.503 10 0 59885 41400.00000 0 -8985544.175 15717790.577 -17970115.399 10 0 59885 42300.00000 0 -10578226.598 17070779.165 -15730828.579 10 0 59885 43200.00000 0 -11837558.004 18352729.232 -13186063.925 10 0 59885 44100.00000 0 -12758000.227 19500071.074 -10385255.226 10 0 59885 45000.00000 0 -13347360.622 20451424.585 -7382800.949 10 0 59885 45900.00000 0 -13626211.190 21150244.359 -4237007.554 10 0 59885 46800.00000 0 -13626778.938 21547280.116 -1008956.881 10 0 59885 47700.00000 0 -13391355.291 21602748.714 2238680.192 10 0 59885 48600.00000 0 -12970292.620 21288126.114 5442860.628 10 0 59885 49500.00000 0 -12419673.214 20587483.540 8541392.786 10 0 59885 50400.00000 0 -11798749.719 19498311.305 11474142.625 10 0 59885 51300.00000 0 -11167265.558 18031795.234 14184199.059 10 0 59885 52200.00000 0 -10582768.712 16212533.528 16618975.917 10 0 59885 53100.00000 0 -10098032.286 14077705.414 18731229.222 10 0 59885 54000.00000 0 -9758690.653 11675725.624 20479970.471 10 0 59885 54900.00000 0 -9601190.698 9064440.109 21831258.672 10 0 59885 55800.00000 0 -9651144.369 6308937.389 22758856.244 10 0 59885 56700.00000 0 -9922151.896 3479065.691 23244736.615 10 0 59885 57600.00000 0 -10415145.315 646758.070 23279434.036 10 0 59885 58500.00000 0 -11118280.247 -2116724.307 22862229.029 10 0 59885 59400.00000 0 -12007381.054 -4743517.286 22001165.873 10 0 59885 60300.00000 0 -13046921.401 -7171735.081 20712901.505 10 0 59885 61200.00000 0 -14191499.892 -9347801.405 19022388.269 10 0 59885 62100.00000 0 -15387749.636 -11228434.276 16962396.024 10 0 59885 63000.00000 0 -16576602.321 -12782202.528 14572882.071 10 0 59885 63900.00000 0 -17695812.152 -13990589.654 11900220.445 10 0 59885 64800.00000 0 -18682633.823 -14848521.124 8996304.846 10 0 59885 65700.00000 0 -19476541.796 -15364333.635 5917542.181 10 0 59885 66600.00000 0 -20021876.018 -15559188.118 2723756.141 10 0 59885 67500.00000 0 -20270301.953 -15465951.872 -522977.808 10 0 59885 68400.00000 0 -20182980.383 -15127597.592 -3759543.032 10 0 59885 69300.00000 0 -19732354.488 -14595187.618 -6923013.726 10 0 59885 70200.00000 0 -18903477.816 -13925529.386 -9951883.672 10 0 59885 71100.00000 0 -17694826.165 -13178601.992 -12787267.145 10 0 59885 72000.00000 0 -16118558.260 -12414863.472 -15374047.881 10 0 59885 72900.00000 0 -14200213.464 -11692553.334 -17661953.276 10 0 59885 73800.00000 0 -11977858.466 -11065104.859 -19606532.719 10 0 59885 74700.00000 0 -9500718.245 -10578776.867 -21170020.919 10 0 59885 75600.00000 0 -6827348.032 -10270605.037 -22322069.728 10 0 59885 76500.00000 0 -4023422.159 -10166759.200 -23040334.622 10 0 59885 77400.00000 0 -1159231.623 -10281375.688 -23310904.934 10 0 59885 78300.00000 0 1693005.997 -10615913.717 -23128570.039 10 0 59885 79200.00000 0 4461912.984 -11159062.650 -22496916.778 10 0 59885 80100.00000 0 7079679.896 -11887203.895 -21428256.587 10 0 59885 81000.00000 0 9484643.382 -12765407.866 -19943383.936 10 0 59885 81900.00000 0 11623607.191 -13748924.094 -18071170.797 10 0 59885 82800.00000 0 13453810.710 -14785101.812 -15848004.895 10 0 59885 83700.00000 0 14944464.185 -15815660.314 -13317082.504 10 0 59885 84600.00000 0 16077787.785 -16779213.596 -10527569.218 10 0 59885 85500.00000 0 16849512.223 -17613943.020 -7533644.900 10 0 59886 0.00000 0 17268821.237 -18260305.322 -4393451.508 10 0 59886 900.00000 0 17357739.714 -18663662.059 -1167962.486 10 0 59886 1800.00000 0 17149993.814 -18776718.625 2080199.832 10 0 59886 2700.00000 0 16689392.846 -18561670.904 5287981.355 10 0 59886 3600.00000 0 16027801.328 -17991967.817 8393119.806 10 0 59886 4500.00000 0 15222787.706 -17053615.457 11335352.387 10 0 59886 5400.00000 0 14335049.358 -15745967.353 14057583.713 10 0 59886 6300.00000 0 13425722.764 -14081966.992 16506991.412 10 0 59886 7200.00000 0 12553692.339 -12087831.736 18636048.007 10 0 59886 8100.00000 0 11773011.246 -9802190.527 20403439.687 10 0 59886 9000.00000 0 11130542.556 -7274710.455 21774864.594 10 0 59886 9900.00000 0 10663919.768 -4564268.536 22723695.610 10 0 59886 10800.00000 0 10399912.125 -1736743.725 23231495.380 10 0 59886 11700.00000 0 10353263.258 1137480.179 23288373.939 10 0 59886 12600.00000 0 10526051.859 3986198.030 22893182.244 10 0 59886 13500.00000 0 10907601.364 6738142.967 22053537.871 10 0 59886 14400.00000 0 11474942.723 9325708.652 20785682.107 10 0 59886 15300.00000 0 12193811.271 11687521.887 19114170.737 10 0 59886 16200.00000 0 13020136.366 13770759.521 17071403.869 10 0 59886 17100.00000 0 13901961.677 15533113.859 14697003.113 10 0 59886 18000.00000 0 14781715.808 16944325.134 12037047.506 10 0 59886 18900.00000 0 15598737.887 17987217.505 9143182.326 10 0 59886 19800.00000 0 16291951.753 18658195.663 6071617.623 10 0 59886 20700.00000 0 16802575.645 18967181.547 2882035.790 10 0 59886 21600.00000 0 17076752.551 18936994.381 -363570.554 10 0 59886 22500.00000 0 17067989.367 18602200.612 -3602107.440 10 0 59886 23400.00000 0 16739300.891 18007482.860 -6770611.033 10 0 59886 24300.00000 0 16064967.079 17205597.419 -9807477.119 10 0 59886 25200.00000 0 15031828.261 16255007.287 -12653663.952 10 0 59886 26100.00000 0 13640062.665 15217291.422 -15253844.337 10 0 59886 27000.00000 0 11903412.470 14154440.304 -17557484.066 10 0 59886 27900.00000 0 9848847.945 13126152.490 -19519825.482 10 0 59886 28800.00000 0 7515683.029 12187246.582 -21102756.913 10 0 59886 29700.00000 0 4954178.644 11385297.819 -22275551.351 10 0 59886 30600.00000 0 2223691.452 10758598.799 -23015460.378 10 0 59886 31500.00000 0 -609555.200 10334529.852 -23308152.286 10 0 59886 32400.00000 0 -3474985.944 10128407.225 -23147986.427 10 0 59886 33300.00000 0 -6300369.654 10142856.965 -22538118.960 10 0 59886 34200.00000 0 -9014585.791 10367740.297 -21490438.287 10 0 59886 35100.00000 0 -11550346.630 10780633.132 -20025331.660 10 0 59886 36000.00000 0 -13846763.022 11347839.090 -18171287.518 10 0 59886 36900.00000 0 -15851647.732 12025893.122 -15964341.190 10 0 59886 37800.00000 0 -17523461.445 12763492.162 -13447374.533 10 0 59886 38700.00000 0 -18832821.260 13503771.330 -10669282.831 10 0 59886 39600.00000 0 -19763509.656 14186829.591 -7684025.008 10 0 59886 40500.00000 0 -20312942.771 14752398.206 -4549575.441 10 0 59886 41400.00000 0 -20492079.458 15142539.186 -1326797.718 10 0 59886 42300.00000 0 -20324775.896 15304259.610 1921737.596 10 0 59886 43200.00000 0 -19846613.881 15191931.163 5132968.064 10 0 59886 44100.00000 0 -19103252.974 14769412.362 8244563.504 10 0 59886 45000.00000 0 -18148376.584 14011783.536 11196135.091 10 0 59886 45900.00000 0 -17041319.078 12906620.880 13930405.841 10 0 59886 46800.00000 0 -15844474.189 11454755.282 16394319.791 10 0 59886 47700.00000 0 -14620593.982 9670483.305 18540068.448 10 0 59886 48600.00000 0 -13430091.965 7581220.546 20326014.977 10 0 59886 49500.00000 0 -12328463.461 5226610.846 21717498.666 10 0 59886 50400.00000 0 -11363931.278 2657127.465 22687504.567 10 0 59886 51300.00000 0 -10575415.044 -67776.695 23217185.875 10 0 59886 52200.00000 0 -9990908.936 -2881894.112 23296229.338 10 0 59886 53100.00000 0 -9626335.504 -5714771.588 22923056.840 10 0 59886 54000.00000 0 -9484923.345 -8494400.164 22104859.277 10 0 59886 54900.00000 0 -9557134.616 -11149975.411 20857461.835 10 0 59886 55800.00000 0 -9821145.471 -13614614.351 19205022.801 10 0 59886 56700.00000 0 -10243859.391 -15827916.934 17179571.111 10 0 59886 57600.00000 0 -10782411.036 -17738266.108 14820390.828 10 0 59886 58500.00000 0 -11386097.570 -19304771.053 12173263.733 10 0 59886 59400.00000 0 -11998656.236 -20498772.802 9289584.098 10 0 59886 60300.00000 0 -12560792.122 -21304849.544 6225362.276 10 0 59886 61200.00000 0 -13012849.173 -21721279.635 3040136.342 10 0 59886 62100.00000 0 -13297511.155 -21759943.154 -204187.070 10 0 59886 63000.00000 0 -13362417.681 -21445666.464 -3444539.864 10 0 59886 63900.00000 0 -13162583.792 -20815037.763 -6617923.410 10 0 59886 64800.00000 0 -12662519.783 -19914744.097 -9662638.705 10 0 59886 65700.00000 0 -11837960.513 -18799500.572 -12519491.130 10 0 59886 66600.00000 0 -10677130.111 -17529659.758 -15132945.576 10 0 59886 67500.00000 0 -9181487.602 -16168602.760 -17452209.047 10 0 59886 68400.00000 0 -7365921.001 -14780022.416 -19432219.347 10 0 59886 69300.00000 0 -5258380.806 -13425213.493 -21034520.555 10 0 59886 70200.00000 0 -2898967.357 -12160484.075 -22228008.458 10 0 59886 71100.00000 0 -338509.436 -11034796.888 -22989531.893 10 0 59886 72000.00000 0 2363307.197 -10087739.413 -23304338.715 10 0 59886 72900.00000 0 5140184.008 -9347907.439 -23166358.340 10 0 59886 73800.00000 0 7921733.906 -8831769.233 -22578315.850 10 0 59886 74700.00000 0 10636181.018 -8543057.191 -21551675.779 10 0 59886 75600.00000 0 13213124.514 -8472711.681 -20106416.934 10 0 59886 76500.00000 0 15586252.236 -8599378.605 -18270642.626 10 0 59886 77400.00000 0 17695891.896 -8890439.067 -16080033.820 10 0 59886 78300.00000 0 19491294.380 -9303527.176 -13577155.614 10 0 59886 79200.00000 0 20932554.765 -9788471.543 -10810630.270 10 0 59886 80100.00000 0 21992091.549 -10289578.221 -7834192.706 10 0 59886 81000.00000 0 22655623.136 -10748158.370 -4705646.651 10 0 59886 81900.00000 0 22922601.490 -11105193.631 -1485741.701 10 0 59886 82800.00000 0 22806085.586 -11304026.254 1763006.723 10 0 59886 83700.00000 0 22332060.806 -11292959.995 4977531.438 10 0 59886 84600.00000 0 21538233.644 -11027661.490 8095437.778 10 0 59886 85500.00000 0 20472353.067 -10473260.264 11056214.007 10 0 59887 0.00000 0 19190129.806 -9606058.330 13802404.026 10 0 59887 900.00000 0 17752840.721 -8414776.162 16280721.078 10 0 59887 1800.00000 0 16224720.897 -6901283.112 18443077.223 10 0 59887 2700.00000 0 14670250.698 -5080779.143 20247513.985 10 0 59887 3600.00000 0 13151453.082 -2981420.304 21659012.762 10 0 59887 4500.00000 0 11725313.489 -643402.064 22650171.331 10 0 59887 5400.00000 0 10441429.997 1882462.438 23201733.608 10 0 59887 6300.00000 0 9339991.513 4536611.359 23302962.863 10 0 59887 7200.00000 0 8450168.084 7252973.828 22951851.352 10 0 59887 8100.00000 0 7788980.103 9961488.539 22155162.397 10 0 59887 9000.00000 0 7360693.316 12590797.860 20928303.850 10 0 59887 9900.00000 0 7156764.635 15071006.422 19295034.965 10 0 59887 10800.00000 0 7156340.814 17336390.401 17287011.700 10 0 59887 11700.00000 0 7327288.911 19327945.383 14943178.490 10 0 59887 12600.00000 0 7627715.171 20995666.952 12309017.567 10 0 59887 13500.00000 0 8007908.288 22300469.085 9435669.693 10 0 59887 14400.00000 0 8412624.943 23215660.234 6378942.845 10 0 59887 15300.00000 0 8783620.866 23727915.200 3198227.961 10 0 59887 16200.00000 0 9062319.954 23837702.079 -44657.194 10 0 59887 17100.00000 0 9192507.913 23559146.372 -3286673.285 10 0 59887 18000.00000 0 9122935.612 22919338.120 -6464789.686 10 0 59887 18900.00000 0 8809720.979 21957111.545 -9517215.250 10 0 59887 19800.00000 0 8218446.753 20721348.998 -12384604.879 10 0 59887 20700.00000 0 7325864.311 19268881.158 -15011217.685 10 0 59887 21600.00000 0 6121130.471 17662072.487 -17346003.712 10 0 59887 22500.00000 0 4606524.038 15966193.991 -19343597.789 10 0 59887 23400.00000 0 2797610.911 14246694.259 -20965201.040 10 0 59887 24300.00000 0 722849.863 12566483.581 -22179333.139 10 0 59887 25200.00000 0 -1577345.425 10983345.137 -22962441.024 10 0 59887 26100.00000 0 -4052049.588 9547581.570 -23299352.741 10 0 59887 27000.00000 0 -6641714.603 8299995.022 -23183568.125 10 0 59887 27900.00000 0 -9280426.600 7270284.465 -22617381.206 10 0 59887 28800.00000 0 -11898437.073 6475926.562 -21611832.293 10 0 59887 29700.00000 0 -14424863.830 5921585.859 -20186490.968 10 0 59887 30600.00000 0 -16790449.933 5599077.953 -18369074.205 10 0 59887 31500.00000 0 -18930266.322 5487886.106 -16194906.991 10 0 59887 32400.00000 0 -20786246.151 5556208.624 -13706235.709 10 0 59887 33300.00000 0 -22309445.774 5762492.029 -10951407.373 10 0 59887 34200.00000 0 -23461938.463 6057384.709 -7983930.476 10 0 59887 35100.00000 0 -24218262.311 6386028.006 -4861435.555 10 0 59887 36000.00000 0 -24566362.269 6690587.451 -1644555.589 10 0 59887 36900.00000 0 -24507987.384 6912916.747 1604251.813 10 0 59887 37800.00000 0 -24058527.199 6997241.427 4821917.425 10 0 59887 38700.00000 0 -23246294.725 6892748.317 7945984.806 10 0 59887 39600.00000 0 -22111286.663 6555970.932 10915822.010 10 0 59887 40500.00000 0 -20703473.406 5952869.552 13673796.959 10 0 59887 41400.00000 0 -19080690.967 5060517.665 16166393.643 10 0 59887 42300.00000 0 -17306223.516 3868323.088 18345247.585 10 0 59887 43200.00000 0 -15446177.893 2378731.565 20168080.804 10 0 59887 44100.00000 0 -13566759.902 607382.378 21599518.640 10 0 59887 45000.00000 0 -11731566.033 -1417291.646 22611773.071 10 0 59887 45900.00000 0 -9999003.319 -3655004.247 23185179.827 10 0 59887 46800.00000 0 -8419944.457 -6055058.102 23308579.380 10 0 59887 47700.00000 0 -7035715.492 -8558230.665 22979534.634 10 0 59887 48600.00000 0 -5876499.319 -11099026.361 22204381.205 10 0 59887 49500.00000 0 -4960221.027 -13608202.737 20998109.100 10 0 59887 50400.00000 0 -4291961.110 -16015466.535 19384077.628 10 0 59887 51300.00000 0 -3863920.563 -18252228.429 17393568.479 10 0 59887 52200.00000 0 -3655938.904 -20254302.390 15065184.821 10 0 59887 53100.00000 0 -3636543.050 -21964437.465 12444107.357 10 0 59887 54000.00000 0 -3764482.605 -23334576.457 9581221.069 10 0 59887 54900.00000 0 -3990686.548 -24327747.022 6532129.068 10 0 59887 55800.00000 0 -4260558.365 -24919505.751 3356072.488 10 0 59887 56700.00000 0 -4516512.136 -25098874.439 114777.417 10 0 59887 57600.00000 0 -4700641.631 -24868728.991 -3128748.449 10 0 59887 58500.00000 0 -4757408.658 -24245624.457 -6311445.437 10 0 59887 59400.00000 0 -4636235.909 -23259063.539 -9371433.217 10 0 59887 60300.00000 0 -4293893.487 -21950239.504 -12249219.176 10 0 59887 61200.00000 0 -3696577.120 -20370306.683 -14888859.532 10 0 59887 62100.00000 0 -2821589.082 -18578251.675 -17239050.131 10 0 59887 63000.00000 0 -1658549.829 -16638455.128 -19254125.358 10 0 59887 63900.00000 0 -210088.290 -14618046.876 -20894945.608 10 0 59887 64800.00000 0 1508019.213 -12584165.568 -22129656.259 10 0 59887 65700.00000 0 3467268.140 -10601237.663 -22934303.747 10 0 59887 66600.00000 0 5627386.251 -8728389.481 -23293297.226 10 0 59887 67500.00000 0 7937796.119 -7017100.094 -23199707.409 10 0 59887 68400.00000 0 10339519.281 -5509192.390 -22655397.292 10 0 59887 69300.00000 0 12767443.276 -4235245.388 -21670982.591 10 0 59887 70200.00000 0 15152857.712 -3213493.003 -20265622.907 10 0 59887 71100.00000 0 17426154.303 -2449254.081 -18466647.761 10 0 59887 72000.00000 0 19519578.815 -1934916.325 -16309024.656 10 0 59887 72900.00000 0 21369920.678 -1650473.482 -13834679.359 10 0 59887 73800.00000 0 22921028.475 -1564592.040 -11091681.314 10 0 59887 74700.00000 0 24126046.529 -1636161.530 -8133309.855 10 0 59887 75600.00000 0 24949279.465 -1816262.135 -5017019.218 10 0 59887 76500.00000 0 25367606.991 -2050465.805 -1803322.379 10 0 59887 77400.00000 0 25371389.925 -2281373.052 1445384.434 10 0 59887 78300.00000 0 24964829.815 -2451277.569 4666033.545 10 0 59887 79200.00000 0 24165767.400 -2504845.566 7796110.239 10 0 59887 80100.00000 0 23004928.679 -2391696.044 10774865.639 10 0 59887 81000.00000 0 21524650.549 -2068772.543 13544494.396 10 0 59887 81900.00000 0 19777139.651 -1502405.716 16051254.338 10 0 59887 82800.00000 0 17822337.556 -669979.222 18246506.360 10 0 59887 83700.00000 0 15725481.650 438871.857 20087654.766 10 0 59887 84600.00000 0 13554463.529 1821581.286 21538970.237 10 0 59887 85500.00000 0 11377094.970 3462520.028 22572279.971 99